www.pogodaiklimat.ru
Время
и дата
18:11 30.12
18:27 30.12
18:53 30.12
19:02 30.12
19:53 30.12
20:25 30.12
20:41 30.12
20:53 30.12
21:02 30.12
21:09 30.12
21:24 30.12
21:34 30.12
21:53 30.12
22:03 30.12
22:25 30.12
22:32 30.12
22:53 30.12
23:53 30.12
00:02 31.12
00:53 31.12
01:19 31.12
01:53 31.12
02:25 31.12
02:44 31.12
02:53 31.12
03:00 31.12
03:53 31.12
04:03 31.12
04:53 31.12
05:53 31.12
06:09 31.12
06:53 31.12
07:28 31.12
07:53 31.12
08:27 31.12
08:53 31.12
09:53 31.12
10:51 31.12
10:53 31.12
11:53 31.12
12:32 31.12
12:43 31.12
12:53 31.12
13:53 31.12
14:53 31.12
15:53 31.12
16:53 31.12
17:53 31.12
Ветер
(напр.,м/с)
Видим. Явления Облачность Т
(С)
Тd
(С)
f
(%)
Тe
(С)
Тes
(С)
Комфортность P
(гПа)
Po
(гПа)
Тmin
(С)
Tmax
(С)
R
(мм)
R24
(мм)
S
(см)
ЮВ 1 4 км дымка 10/10 270 м +12.2 +10.6 90 +11 +11 989.2
Ю 1 5 км дымка 10/10 60 м +11.7 +10.6 93 +10 +10 989.2
ЮВ 1 6 км дымка 10/10 60 м +12.2 +10.6 90 +11 +11 1012.6 989.5 +11.7 +12.8
Ю 1 6 км дымка 10/10 60 м +12.2 +10.6 90 +11 +11 989.5
Ю 1 8 км дымка 10/10 240 м +12.2 +10.6 90 +11 +11 1012.8 989.5
Ю 1 4 км дымка 10/10 90 м +12.2 +10.6 90 +11 +11 989.9
Ю 1 3 км дымка 10/10 90 м +12.2 +10.6 90 +11 +11 989.5
Ю 1 2 км дымка 10/10 90 м +12.2 +10.6 90 +11 +11 1012.9 989.9
штиль 0 1 км дымка ?/? +12.2 +11.1 93 +12 +12 989.9
штиль 0 2 км дымка 10/10 120 м +12.2 +11.1 93 +12 +12 989.9
штиль 0 3 км дымка 10/10 120 м +12.2 +10.6 90 +12 +12 989.9
штиль 0 3 км дымка 10/10 150 м +12.2 +11.1 93 +12 +12 989.9
штиль 0 3 км дымка 10/10 150 м +12.2 +10.6 90 +12 +12 1013.2 990.2
штиль 0 5 км дымка 10/10 210 м +12.2 +10.6 90 +12 +12 989.9
штиль 0 4 км дымка 10/10 210 м +12.2 +10.6 90 +12 +12 989.5
штиль 0 8 км дымка 10/10 180 м +12.2 +11.1 93 +12 +12 989.9
штиль 0 10 км дымка 10/10 180 м +12.2 +11.1 93 +12 +12 1012.7 989.5
нст 1 10 км дымка 10/10 150 м +12.2 +10.6 90 +11 +11 1012.5 989.5
ЮЗ 1 10 км дымка 10/10 120 м +12.2 +10.6 90 +11 +11 989.5
штиль 0 8 км дымка 10/10 90 м +12.2 +11.1 93 +12 +12 1012.4 989.5 +11.7 +12.2
ЮЗ 1 4 км дымка 10/10 60 м +12.2 +10.6 90 +11 +11 989.5
штиль 0 3 км дымка 10/10 60 м +12.2 +10.6 90 +12 +12 1012.6 989.5
штиль 0 2 км дымка 10/10 60 м +12.2 +10.6 90 +12 +12 989.9
штиль 0 4 км дымка 10/10 60 м +11.7 +10.6 93 +11 +11 989.9
штиль 0 3 км дымка 10/10 60 м +11.7 +10.6 93 +11 +11 1012.8 989.9
штиль 0 2 км дымка 10/10 60 м +11.7 +10.6 93 +11 +11 989.5
штиль 0 2 км дымка 10/10 60 м +11.7 +10.6 93 +11 +11 1012.7 989.5
штиль 0 1 км дымка ?/? +11.7 +10.6 93 +11 +11 989.5
штиль 0 400 м туман ?/? +11.7 +10.0 89 +11 +11 1013.0 989.9
штиль 0 400 м туман ?/? +11.7 +10.6 93 +11 +11 1013.4 990.2
штиль 0 800 м туман ?/? +11.7 +10.6 93 +11 +11 990.2
В 1 800 м туман ?/? +11.1 +10.0 93 +10 +10 1013.5 990.5 +11.1 +12.2
штиль 0 400 м туман ?/? +11.1 +10.0 93 +10 +10 990.5
ЮЗ 1 400 м туман ?/? +11.1 +10.0 93 +10 +10 1014.4 991.2
З 1 800 м туман 10/10 60 м +11.1 +10.0 93 +10 +10 991.5
Ю 1 800 м туман ?/? +11.1 +10.0 93 +10 +10 1014.9 991.9
Ю 1 2 км дымка 10/10 60 м +11.7 +10.0 89 +10 +10 1015.2 992.2
нст 1 2 км дымка 10/10 150 м +12.0 +11.0 94 +11 +11 992.2
нст 1 6 км дымка 10/10 150 м +12.2 +10.6 90 +11 +11 1015.3 992.2
Ю 2 16 км 10/10 270 м +14.4 +11.1 81 +13 +13 1013.6 990.5
ЮЗ 1 16 км 8/8 360 м +15.0 +10.6 75 +14 +15 990.2
Ю 2 16 км 2/2 390 м +16.1 +11.1 72 +15 +18 989.9
Ю 1 16 км 2/2 390 м +15.6 +10.6 72 +15 +19 1012.9 989.9 +11.1 +16.1
ЮЗ 1 16 км ясно +17.2 +10.6 65 +17 +21 1012.1 989.2
Ю 1 16 км 5/0 3300 м
[Ac]
+17.2 +10.6 65 +17 +19 1011.6 988.6
Ю 2 16 км 5/0 3000 м
[Ac]
+17.2 +10.0 63 +17 +17 1011.7 988.9
Ю 2 16 км 2/0 3600 м
[Ac]
+16.1 +9.4 64 +15 +15 1011.6 988.6
Ю 2 16 км 5/0 2400 м
[Ac]
+15.6 +9.4 67 +14 +14 1011.5 988.6
Местоположение метеостанции Charlottesville-Albemarle Airport: широта 38.1374 долгота -78.4552 высота над уровнем моря 195 м.
В архиве по умолчанию представлена погода в Шарлоттсвилле за последние 1-2 суток. Обновление информации о фактической погоде в базе происходит ежечасно! Архивные данные за месяц целиком и за предыдущие месяцы Вы можете получить, выбрав интересующий диапазон дат из раскрывающегося списка и нажав кнопку "Ввод!".
Внимание! Архив погоды МЕТАР в базе сайта по станциям, не включенным в климатический монитор, хранится не более 60 дней. Нет смысла пытаться выбрать более раннюю дату.
*Определитесь, кто Вы:
Внимание! Время в таблицах - местное (без учета летнего времени). Для получения всемирного времени необходимо вычесть поправку, которая равна -5 ч.
Смотрите также архив погоды в соседних городах и на ближайших метеорологических станциях:
Партнеры нашего сайта:      
Пояснения к столбцам:
  • Ветер - указаны скорость ветра в м/с - средняя за 10 мин, порывы в срок и между сроками (в фигурных скобках) и направление, откуда дует ветер: С - северный,
  • СВ - северо-восточный, В - восточный, ЮВ - юго-восточный, Ю - южный, ЮЗ - юго-западный, З - западный, СЗ - северо-западный.
  • Видимость - горизонтальная дальность видимости в метрах или километрах. При видимости от 1 до 10 км при отсутствии осадков обычно наблюдается дымка, при ухудшении видимости до 1 км и менее - туман. В сухую погоду видимость может ухудшаться дымом, пылью или мглою.
  • Явления - указаны атмосферные явления, наблюдавшиеся в срок или в последний час перед сроком; фигурными скобками обозначены явления, наблюдавшиеся между сроками (за 1-3 часа до срока); квадратными скобками обозначены град или гололедные отложения с указанием их диаметра в мм.
  • Облачность - указаны через наклонную черту общая и нижняя облачность в баллах и высота нижней границы облаков в метрах; квадратными скобками обозначены формы облаков: Ci - перистые, Cs - перисто-слоистые, Cc - перисто-кучевые, Ac - высококучевые, As - высокослоистые, Sc - слоисто-кучевые, Ns - слоисто-дождевые, Cu - кучевые, Cb - кучево-дождевые. Подробнее классификацию облаков см. в Атласе облаков (PDF).
  • T - Температура воздуха - температура, измеренная на высоте 2 м над землей.
  • Td - Температура точки росы - температура, при понижении до которой содержащийся в воздухе водяной пар достигнет насыщения.
  • f - Относительная влажность воздуха - влажноcть воздуха, измеренная на высоте 2 м над землей.
  • Te - Эффективная температура - температура, которую ощущает одетый по сезону человек в тени. Характеристика душности погоды. При расчете учитывается влияние влажности воздуха и скорости ветра на теплоощущения человека.
  • Tes - Эффективная температура на солнце - температура, которую ощущает человек, с поправкой на солнечный нагрев. Характеристика знойности погоды. Зависит от высоты солнца над горизонтом, облачности и скорости ветра. Ночью, в пасмурную погоду, а также при ветре 12 м/с и более поправка равна нулю.
  • P - Атмосферное давление - приведенное к уровню моря атмосферное давление.
  • Po - Атмосферное давление - измеренное на уровне метеостанции атмосферное давление.
  • Tmin - Минимальная температура - минимум температуры воздуха на высоте 2 м над землей.
  • Tmax - Максимальная температура - максимум температуры воздуха на высоте 2 м над землей.
  • R - Количество осадков - Количество выпавших осадков за период времени, мм. При наведении курсора мыши на число - период времени, за который выпало указанное количество осадков.
  • R24 - Количество осадков - Количество выпавших осадков за 24 часа, мм.
  • S - Снежный покров - Высота снежного покрова, см. При наведении курсора мыши на число - состояние снежного покрова и степень покрытия местности в баллах.